KONT

LA/Ontario Airport

Airport
ICAO code
KONT
Summary
ICAO Region
NAM
ICAO Territory
Location

Ontario, California,

Coordinates
34° 3' 39" N , 117° 35' 54" W
KCC
Airport BS
Bird Strike
Airport WX
Fog
Metar
Observation
KONT 031953Z 00000KT 10SM BKN200 BKN250 18/M02 A3021 RMK AO2 SLP227 T01831017
Station
Ontario, Ontario International Airport
Date/Time
2023-02-03 20:53:00
Wind direction
Wind speed
00 kts
Lowest cloud amount
broken clouds
Temperature
18.3°C
Dew point
-1.7°C
Humidity
25%
Weather condition
n/a

Description

International airport 20 nm east of the city of Los Angeles.

Climatology

Mediterranean climate or Dry-Summer Subtropical (Köppen climate classification Csa) - Summers are warm to hot and dry. Winters are mild and somewhat rainy. Spring and autumn bring mild days with cool evenings and are generally dry.

Runways

Designator Length Width Surface Rops
08R/26L 3109 46 CON Yes/Yes
08L/26R 3718 46 PEM Yes/Yes

Airport map

Aerial View

SKYbrary Partners:

Safety knowledge contributed by: